Location: Sluknov
(51.0170°N, 14.4670°E)
Time: 18:25:16
(UTC+01:00)

ACS3 Solar Sail - Visible Passes

Search period start: 14 February 2026 00:00
Search period end: 24 February 2026 00:00
Orbit: 899 x 968 km, 97.2° (Epoch: 13 February)

Date Brightness Start Highest point End Pass type
(mag) Time Alt. Az. Time Alt. Az. Time Alt. Az.
14 Feb 4.4 01:53:41 10° NNE 01:54:08 12° NNE 01:54:08 12° NNE visible
14 Feb 3.8 03:36:49 10° N 03:37:53 15° N 03:37:53 15° N visible
15 Feb 4.2 02:06:06 10° NNE 02:06:49 14° NNE 02:06:49 14° NNE visible
15 Feb 3.8 03:49:29 10° N 03:50:35 14° NNW 03:50:35 14° NNW visible
16 Feb 4.1 02:18:31 10° NNE 02:19:28 15° NNE 02:19:28 15° NNE visible
16 Feb 3.8 04:02:11 10° N 04:03:13 14° NNW 04:03:13 14° NNW visible
17 Feb 4.0 02:30:55 10° N 02:32:04 16° N 02:32:04 16° N visible
17 Feb 3.8 04:14:54 10° NNW 04:15:49 13° NNW 04:15:49 13° NNW visible
18 Feb 3.9 02:43:18 10° N 02:44:38 18° N 02:44:38 18° N visible
18 Feb 3.8 04:27:44 10° NNW 04:28:23 11° NNW 04:28:23 11° NNW visible
19 Feb 4.5 01:13:17 10° NNE 01:13:24 11° NNE 01:13:24 11° NNE visible
19 Feb 3.7 02:55:40 10° N 02:57:09 18° N 02:57:09 18° N visible
19 Feb 3.8 04:40:49 10° NNW 04:40:54 10° NNW 04:40:54 10° NNW visible
20 Feb 4.4 01:25:22 10° NNE 01:25:53 12° NNE 01:25:53 12° NNE visible
20 Feb 3.7 03:08:02 10° N 03:09:38 19° N 03:09:38 19° N visible
21 Feb 4.2 01:37:27 10° NNE 01:38:19 14° NNE 01:38:19 14° NNE visible
21 Feb 3.6 03:20:22 10° N 03:22:04 18° NNW 03:22:04 18° NNW visible
22 Feb 4.1 01:49:33 10° NNE 01:50:43 16° NNE 01:50:43 16° NNE visible
22 Feb 3.6 03:32:43 10° N 03:34:27 18° NNW 03:34:27 18° NNW visible
23 Feb 3.9 02:01:38 10° NNE 02:03:04 18° NNE 02:03:04 18° NNE visible
23 Feb 3.6 03:45:03 10° N 03:46:48 17° NNW 03:46:48 17° NNW visible
